User: anonymous   Login
Location: Newark
(45.8667°N, 9.7333°E)
Time: 13:09:39
(UTC+00:00)
Language:

FO-29 - Orbit

View from above orbital plane
View from above orbital plane
View from above satellite
View from above satellite

Ground track
Ground track

The orbit data is extracted from the following two-line orbital elements,

1 24278U 96046B   20048.56513148 -.00000024 +00000-0 +13535-4 0  9993
2 24278 098.5673 174.3216 0349744 328.1157 029.9230 13.53095477160539
Epoch (UTC): 17 February 2020 13:33:47
Eccentricity: 0.0349744
inclination: 98.5673°
perigee height: 801 km
apogee height: 1321 km
right ascension of ascending node: 174.3216°
argument of perigee: 328.1157°
revolutions per day: 13.53095477
mean anomaly at epoch: 29.9230°
orbit number at epoch: 16053

The dashed part of the orbit path shows where the satellite is in the earth's shadow,  

DLR